This is the latest recevied weather packets stored in our database for station/object GW3ATZ-10. If no packets are shown the sender has not sent any weather packets the latest 10 day(s).
| Time | Temp. | Humidity | Pressure | Rain* | Wind** | Luminosity | Snow |
|---|---|---|---|---|---|---|---|
| 1788182097 | 21.11° C | 55% | 1015.5 hPa | - | - | - | - |
| 1788181197 | 21.11° C | 55% | 1015.4 hPa | - | - | - | - |
| 1788180297 | 21.11° C | 55% | 1015.2 hPa | - | - | - | - |
| 1788179403 | 21.11° C | 55% | 1015.1 hPa | - | - | - | - |
| 1788178496 | 21.67° C | 55% | 1014.8 hPa | - | - | - | - |
| 1788177596 | 21.67° C | 55% | 1014.5 hPa | - | - | - | - |
| 1788176696 | 21.67° C | 55% | 1014.3 hPa | - | - | - | - |
| 1788175796 | 21.67° C | 55% | 1014 hPa | - | - | - | - |
| 1788174896 | 22.22° C | 55% | 1013.7 hPa | - | - | - | - |
| 1788173996 | 22.78° C | 55% | 1013.5 hPa | - | - | - | - |
| 1788173096 | 22.22° C | 55% | 1013.1 hPa | - | - | - | - |
| 1788172196 | 22.78° C | 56% | 1012.9 hPa | - | - | - | - |
| 1788171296 | 22.22° C | 56% | 1012.6 hPa | - | - | - | - |
| 1788170395 | 21.67° C | 56% | 1012.4 hPa | - | - | - | - |
| 1788169495 | 21.67° C | 55% | 1012.1 hPa | - | - | - | - |
| 1788168595 | 22.22° C | 55% | 1011.8 hPa | - | - | - | - |
| 1788167695 | 22.78° C | 57% | 1011.5 hPa | - | - | - | - |
| 1788166795 | 22.22° C | 57% | 1011.3 hPa | - | - | - | - |
| 1788165895 | 21.67° C | 59% | 1010.9 hPa | - | - | - | - |
| 1788164995 | 20° C | 61% | 1010.5 hPa | - | - | - | - |
| 1788164921 | 20° C | 62% | 1010.5 hPa | - | - | - | - |
| 1788164523 | 19.44° C | 62% | 1010.3 hPa | - | - | - | - |
| 1788163623 | 19.44° C | 62% | 1010 hPa | - | - | - | - |
| 1788162723 | 18.89° C | 62% | 1009.7 hPa | - | - | - | - |
| 1788161823 | 18.33° C | 64% | 1009.5 hPa | - | - | - | - |
* Rain since midnight (hover to see other rain measurements)
** Current wind speed in m/s (hover to see current wind gust speed)